| time (UTC) | temp F | wind direction | speed MPH | gust MPH | rain 1hr in | rain 24hr in | rain mn in | humidity % | barometer mb |
| 20260505234517 | 61 | 0.0 | 1.0 | 0.02 | 0.25 | 0.25 | 100 | 1000.4 | |
| 20260505233057 | 62 | 0.0 | 2.0 | 0.01 | 0.24 | 0.24 | 100 | 1000.7 | |
| 20260505231515 | 62 | 0.0 | 3.0 | 0.00 | 0.23 | 0.23 | 100 | 1001.2 | |
| 20260505230016 | 62 | 0.0 | 2.0 | 0.00 | 0.23 | 0.23 | 100 | 1001.1 | |
| 20260505224515 | 62 | 0.0 | 7.0 | 0.00 | 0.23 | 0.23 | 100 | 1001.1 | |
| 20260505223017 | 62 | 180 | 1.0 | 7.0 | 0.00 | 0.23 | 0.23 | 100 | 1001.2 |
| 20260505221536 | 62 | 180 | 1.0 | 5.0 | 0.00 | 0.23 | 0.23 | 100 | 1001.5 |
| 20260505220015 | 62 | 0.0 | 3.0 | 0.01 | 0.23 | 0.23 | 100 | 1001.6 | |
| 20260505214517 | 62 | 0.0 | 3.0 | 0.02 | 0.23 | 0.23 | 100 | 1001.9 | |
| 20260505213015 | 62 | 158 | 1.0 | 5.0 | 0.02 | 0.23 | 0.23 | 99 | 1002.0 |
| 20260505211537 | 62 | 180 | 1.0 | 6.0 | 0.02 | 0.23 | 0.23 | 99 | 1001.9 |
| 20260505210015 | 62 | 158 | 1.0 | 6.0 | 0.03 | 0.22 | 0.22 | 99 | 1002.0 |
| 20260505204516 | 63 | 180 | 1.0 | 7.0 | 0.02 | 0.21 | 0.21 | 98 | 1002.0 |
| 20260505203016 | 63 | 158 | 1.0 | 7.0 | 0.05 | 0.21 | 0.21 | 97 | 1002.0 |
| 20260505201515 | 63 | 0.0 | 4.0 | 0.08 | 0.21 | 0.21 | 97 | 1002.1 | |
| 20260505200036 | 63 | 0.0 | 3.0 | 0.08 | 0.19 | 0.19 | 95 | 1002.3 | |
| 20260505194516 | 63 | 0.0 | 5.0 | 0.10 | 0.19 | 0.19 | 93 | 1002.5 | |
| 20260505193017 | 64 | 0.0 | 4.0 | 0.07 | 0.16 | 0.16 | 90 | 1002.6 | |
| 20260505191517 | 66 | 0.0 | 0.0 | 0.04 | 0.13 | 0.13 | 86 | 1003.1 | |
| 20260505190018 | 67 | 180 | 1.0 | 5.0 | 0.02 | 0.11 | 0.11 | 79 | 1002.6 |
| 20260505184517 | 67 | 158 | 1.0 | 6.0 | 0.00 | 0.09 | 0.09 | 73 | 1002.3 |
| 20260505183017 | 68 | 180 | 2.0 | 13.0 | 0.00 | 0.09 | 0.09 | 71 | 1002.5 |
| 20260505181536 | 67 | 158 | 1.0 | 11.0 | 0.00 | 0.09 | 0.09 | 72 | 1002.6 |
| 20260505180015 | 67 | 180 | 2.0 | 11.0 | 0.00 | 0.09 | 0.09 | 71 | 1002.7 |
| 20260505174515 | 67 | 158 | 1.0 | 10.0 | 0.00 | 0.09 | 0.09 | 71 | 1002.8 |
| 20260505173017 | 67 | 158 | 1.0 | 11.0 | 0.00 | 0.09 | 0.09 | 72 | 1003.0 |
| 20260505171517 | 66 | 180 | 1.0 | 10.0 | 0.00 | 0.09 | 0.09 | 72 | 1003.1 |
| 20260505170036 | 66 | 158 | 2.0 | 8.0 | 0.00 | 0.09 | 0.09 | 72 | 1003.1 |
| 20260505164516 | 66 | 180 | 1.0 | 8.0 | 0.00 | 0.09 | 0.09 | 73 | 1003.1 |
| 20260505163016 | 66 | 180 | 1.0 | 6.0 | 0.00 | 0.09 | 0.09 | 73 | 1003.1 |
| 20260505161516 | 66 | 158 | 1.0 | 7.0 | 0.00 | 0.09 | 0.09 | 75 | 1003.1 |
| 20260505153016 | 66 | 158 | 1.0 | 7.0 | 0.00 | 0.09 | 0.09 | 78 | 1003.0 |
| 20260505151536 | 65 | 203 | 1.0 | 7.0 | 0.00 | 0.09 | 0.09 | 78 | 1002.8 |
| 20260505124516 | 59 | 180 | 1.0 | 5.0 | 0.00 | 0.09 | 0.09 | 100 | 1002.1 |
| 20260505123018 | 59 | 0.0 | 5.0 | 0.00 | 0.09 | 0.09 | 100 | 1002.5 | |
| 20260505121516 | 59 | 0.0 | 3.0 | 0.00 | 0.09 | 0.09 | 100 | 1003.1 | |
| 20260505120017 | 59 | 0.0 | 2.0 | 0.00 | 0.09 | 0.09 | 100 | 1003.1 | |
| 20260505114516 | 58 | 0.0 | 1.0 | 0.00 | 0.09 | 0.09 | 100 | 1003.0 | |
| 20260505113017 | 58 | 0.0 | 7.0 | 0.00 | 0.09 | 0.09 | 99 | 1002.8 | |
| 20260505111517 | 58 | 0.0 | 2.0 | 0.00 | 0.09 | 0.09 | 99 | 1002.2 | |
| 20260505101518 | 59 | 0.0 | 1.0 | 0.09 | 0.09 | 0.09 | 95 | 1003.1 | |
| 20260505100018 | 60 | 0.0 | 3.0 | 0.05 | 0.05 | 0.05 | 92 | 1003.4 | |
| 20260505094518 | 60 | 0.0 | 1.0 | 0.02 | 0.02 | 0.02 | 89 | 1003.4 | |
| 20260505093036 | 62 | 0.0 | 1.0 | 0.01 | 0.01 | 0.01 | 82 | 1003.2 | |
| 20260505091538 | 64 | 0.0 | 1.0 | 0.00 | 0.00 | 0.00 | 71 | 1002.5 | |
| 20260505090016 | 65 | 0.0 | 2.0 | 0.00 | 0.00 | 0.00 | 62 | 1001.9 | |
| 20260505084516 | 65 | 0.0 | 3.0 | 0.00 | 0.00 | 0.00 | 61 | 1001.5 | |
| 20260505083038 | 65 | 0.0 | 3.0 | 0.00 | 0.00 | 0.00 | 61 | 1001.3 | |
| 20260505081516 | 65 | 0.0 | 3.0 | 0.00 | 0.00 | 0.00 | 61 | 1001.0 | |
| 20260505080036 | 65 | 0.0 | 2.0 | 0.00 | 0.00 | 0.00 | 60 | 1000.9 | |
| 20260505074556 | 66 | 0.0 | 5.0 | 0.00 | 0.00 | 0.00 | 61 | 1001.0 | |
| 20260505073038 | 66 | 0.0 | 5.0 | 0.00 | 0.00 | 0.00 | 58 | 1000.9 | |
| 20260505071516 | 67 | 158 | 1.0 | 8.0 | 0.00 | 0.00 | 0.00 | 57 | 1000.4 |
| 20260505070016 | 67 | 180 | 2.0 | 10.0 | 0.00 | 0.00 | 0.00 | 57 | 1000.5 |
| 20260505064518 | 67 | 158 | 2.0 | 11.0 | 0.00 | 0.00 | 0.00 | 56 | 1000.5 |
| 20260505063018 | 68 | 158 | 3.0 | 12.0 | 0.00 | 0.00 | 0.00 | 55 | 1000.5 |
| 20260505061516 | 68 | 180 | 2.0 | 12.0 | 0.00 | 0.00 | 0.00 | 55 | 1000.5 |
| 20260505060017 | 68 | 158 | 1.0 | 11.0 | 0.00 | 0.00 | 0.00 | 55 | 1000.5 |
| 20260505054516 | 68 | 180 | 1.0 | 10.0 | 0.00 | 0.00 | 0.00 | 55 | 1000.2 |
| 20260505053018 | 69 | 180 | 3.0 | 14.0 | 0.00 | 0.00 | 0.00 | 54 | 1000.0 |
| 20260505051537 | 69 | 180 | 1.0 | 6.0 | 0.00 | 0.00 | 0.00 | 54 | 999.8 |
| 20260505041517 | 69 | 180 | 1.0 | 9.0 | 0.00 | 0.00 | 0.00 | 56 | 1000.5 |
| 20260505040016 | 69 | 158 | 2.0 | 10.0 | 0.00 | 0.00 | 0.00 | 56 | 1000.7 |
| 20260505034517 | 69 | 180 | 1.0 | 8.0 | 0.00 | 0.00 | 0.00 | 57 | 1000.7 |
| 20260505033017 | 69 | 0.0 | 8.0 | 0.00 | 0.00 | 0.00 | 57 | 1000.7 | |
| 20260505031517 | 69 | 0.0 | 5.0 | 0.00 | 0.00 | 0.00 | 57 | 1000.5 | |
| 20260505030019 | 69 | 0.0 | 5.0 | 0.00 | 0.00 | 0.00 | 57 | 1000.5 | |
| 20260505024537 | 69 | 225 | 1.0 | 5.0 | 0.00 | 0.00 | 0.00 | 56 | 1000.3 |
| 20260505023101 | 69 | 180 | 1.0 | 7.0 | 0.00 | 0.00 | 0.00 | 56 | 1000.2 |
| 20260505021519 | 69 | 180 | 1.0 | 8.0 | 0.00 | 0.00 | 0.00 | 57 | 999.9 |
| 20260505020017 | 69 | 0.0 | 3.0 | 0.00 | 0.00 | 0.00 | 57 | 999.7 | |
| 20260505014519 | 69 | 0.0 | 3.0 | 0.00 | 0.00 | 0.00 | 56 | 999.3 | |
| 20260505013015 | 70 | 0.0 | 3.0 | 0.00 | 0.00 | 0.00 | 55 | 999.3 | |
| 20260505011517 | 71 | 0.0 | 4.0 | 0.00 | 0.00 | 0.00 | 55 | 999.2 | |
| 20260505010015 | 71 | 0.0 | 3.0 | 0.00 | 0.00 | 0.00 | 53 | 999.3 | |
| 20260505004515 | 72 | 0.0 | 3.0 | 0.00 | 0.00 | 0.00 | 52 | 999.3 | |
| 20260505003017 | 73 | 248 | 1.0 | 8.0 | 0.00 | 0.00 | 0.00 | 50 | 999.2 |
| 20260505001515 | 73 | 0.0 | 5.0 | 0.00 | 0.00 | 0.00 | 49 | 999.3 | |
| 20260505000017 | 74 | 180 | 1.0 | 7.0 | 0.00 | 0.00 | 0.00 | 48 | 999.4 |